Regional Weather Roundup
Issued by NWS

Home | Current Version | Previous Version | Graphics & Text | Print | Product List | Glossary On
Versions: 1 2 3 4 5 6 7 8 9 10 11 12 13 14 15 16 17 18 19 20 21 22 23 24 25 26 27 28 29 30 31 32 33 34 35 36 37 38 39 40 41 42 43 44 45 46 47 48 49 50
442
ASUS43 KOAX 231910
RWRNE

WEATHER ROUNDUP FOR NEBRASKA
NATIONAL WEATHER SERVICE OMAHA NE
200 PM CDT SAT JUL 23 2016

NOTES: SATELLITE DATA IS BEING USED TO AUGMENT CLOUD COVER ABOVE
       12000 FEET.
       "FAIR" INDICATES FEW OR NO CLOUDS BELOW 12,000 FEET WITH NO
       SIGNIFICANT WEATHER AND/OR OBSTRUCTIONS TO VISIBILITY.

  * THESE STATIONS DO NOT REPORT WEATHER SUCH AS RAIN...SNOW OR FOG.

NEZ001>004-019>022-054>056-232000-
NEBRASKA PANHANDLE

CITY           SKY/WX    TMP DP  RH WIND       PRES   REMARKS
SCOTTSBLUFF    SUNNY     93  50  23 NW14      29.99F HX  90
ALLIANCE       SUNNY     90  53  28 N15G24    29.98S
CHADRON        SUNNY     92  50  23 NW7G20    29.94R
KIMBALL        SUNNY     91  49  24 N12G17    30.06F
SIDNEY         SUNNY     96  48  19 N15       30.02F HX  92
$$

NEZ057>060-069>072-079>082-232000-
SOUTHWEST NEBRASKA

CITY           SKY/WX    TMP DP  RH WIND       PRES   REMARKS
NORTH PLATTE   CLOUDY    89  71  55 W8        29.89S HX  95
IMPERIAL       SUNNY     89  66  46 VRB7      29.93F HX  91
LEXINGTON      SUNNY     89  69  52 SW7       29.87S HX  93
MCCOOK         CLOUDY    88  67  49 W5        29.88F HX  91
OGALLALA       SUNNY     92  63  37 W6        29.92S HX  93
$$

NEZ005>010-023>029-035>040-094-232000-
NORTH CENTRAL NEBRASKA

CITY           SKY/WX    TMP DP  RH WIND       PRES   REMARKS
VALENTINE      SUNNY     95  60  31 NW16G25   29.83R HX  95
AINSWORTH      SUNNY     92  68  45 W14       29.82S HX  96
BROKEN BOW     SUNNY     88  72  58 W12       29.86F HX  94
O`NEILL        SUNNY     93  67  43 SW15      29.80F HX  96
ORD            SUNNY     89  70  53 SW13      29.81F HX  94
THEDFORD       SUNNY     96  63  33 W15G22    29.87S HX  97
$$

NEZ041-046>049-061>064-073>077-083>087-232000-
SOUTH CENTRAL NEBRASKA

CITY           SKY/WX    TMP DP  RH WIND       PRES   REMARKS
GRAND ISLAND   SUNNY     92  68  45 SW17G23   29.84F HX  96
AURORA         SUNNY     89  70  54 SW9       29.84F HX  94
HASTINGS       SUNNY     92  70  48 SW10      29.85F HX  97
HEBRON         CLOUDY    90  70  52 S14G21    29.83F HX  95
HOLDREGE       SUNNY     89  69  52 W7        29.87S HX  94
KEARNEY *      SUNNY     90  72  55 SW9       29.86F HX  96
YORK           CLOUDY    90  73  58 SW10      29.84S HX  98
$$

NEZ011>018-030>034-042>045-232000-
NORTHEAST NEBRASKA

CITY           SKY/WX    TMP DP  RH WIND       PRES   REMARKS
NORFOLK        SUNNY     90  72  55 SW13G21   29.80F HX  97
ALBION         SUNNY     88  72  59 SW9       29.82S HX  95
BLAIR          CLOUDY    86  74  67 S9        29.84S HX  94
FREMONT        CLOUDY    87  73  63 S6        29.83S HX  95
TEKAMAH        CLOUDY    85  76  74 SE12      29.81F HX  94
WAYNE          MOSUNNY   90  78  67 SW9       29.80S HX 104
$$

NEZ050>053-065>068-078-088>093-232000-
SOUTHEAST NEBRASKA

CITY           SKY/WX    TMP DP  RH WIND       PRES   REMARKS
LINCOLN        MOSUNNY   92  71  50 SW15      29.83R HX  98
OMAHA EPPLEY   CLOUDY    89  73  59 S13       29.83S HX  97
BEATRICE       CLOUDY    88  70  55 S14       29.84S HX  93
FALLS CITY     MOSUNNY   91  77  63 S10       29.85S HX 104
NEBRASKA CITY  CLOUDY    84  76  76 S9        29.85S HX  92
PLATTSMOUTH    CLOUDY    87  75  68 S7        29.84F HX  96
$$

NEZ044-045-051>053-067-232000-
OMAHA AREA

CITY           SKY/WX    TMP DP  RH WIND       PRES   REMARKS
OMAHA EPPLEY   CLOUDY    89  73  59 S13       29.83S HX  97
BLAIR          CLOUDY    86  74  67 S9        29.84S HX  94
FREMONT        CLOUDY    87  73  63 S6        29.83S HX  95
MILLARD        CLOUDY    89  74  61 S6        29.83R HX  99
OFFUTT AFB     CLOUDY    89  75  63 SE9       29.83S HX  98
PLATTSMOUTH    CLOUDY    87  75  68 S7        29.84F HX  96
WAHOO          FAIR      88  74  63 S8        29.82F HX  96
$$




USA.gov is the U.S. government's official web portal to all federal, state and local government web resources and services.